Flag for U.S.A. Weather past 2 weeks in Austin, Texas, U.S.A.

Now
68 °F

Clear.


Feels Like: 68 °F
Forecast: 71 / 86 °F
Wind: 3 mph from Northeast

Location: Camp Mabry / Austin City

Current Time: May 26, 2015 at 1:02:21 AM

Latest Report: May 25, 2015 at 11:51 PM


Visibility: 10 mi

Pressure: 29.88 "Hg

Humidity: 96%

Dew point: 67 °F

Location of AustinLocation

Historic Weather in Austin — Graph

°F

Austin temperature yesterday

Maximum temperature yesterday: 80 °F (at 12:51 PM)
Minimum temperature yesterday: 66 °F (at 5:00 PM)
Average temperature yesterday: 72 °F

Past Weeks' High & Low Weather Summary

 TemperatureHumidityPressure
High89 °F (May 20, 3:51 PM)100% (May 13, 4:51 AM)30.20 "Hg (May 13, 4:51 AM)
Low62 °F (May 22, 12:51 AM)55% (May 20, 3:51 PM)29.76 "Hg (May 25, 2:58 PM)
Average73 °F87%29.98 "Hg
* Reported May 10 11:51 PM — May 25 11:51 PM, Austin, Weather by CustomWeather, © 2015

Note: Actual official high and low records may vary slightly from our data, if they occured in-between our weather recording intervals... More about our weather records

Advertising

Austin weather history for previous 24 hours

 ConditionsComfort  
Time TempWeatherWind HumidityBarometerVisibility
11:51 PM
Mon, May 25
68 °FClear.3 mph96%29.88 "Hg10 mi
10:51 PM68 °FClear.No wind96%29.86 "Hg8 mi
9:51 PM69 °FClear.No wind96%29.84 "Hg10 mi
8:51 PM69 °FPassing clouds.No wind96%29.83 "Hg10 mi
7:51 PM68 °FPassing clouds.No wind96%29.82 "Hg10 mi
6:51 PM67 °FPartly sunny.No wind100%29.81 "Hg8 mi
6:00 PM67 °FThundershowers. Partly sunny.No wind97%29.83 "Hg9 mi
5:00 PM66 °FThunderstorms. Fog.6 mph100%29.81 "Hg2 mi
4:04 PM69 °FThunderstorms. Fog.6 mph100%29.81 "Hg1 mi
3:51 PM69 °FStrong thunderstorms. Fog.14 mph100%29.77 "Hg1 mi
2:58 PM73 °FThunderstorms. Fog.5 mph97%29.76 "Hg4 mi
2:01 PM76 °FThunderstorms. Fog.10 mph94%29.80 "Hg2 mi
12:51 PM80 °FPartly sunny.8 mph76%29.81 "Hg10 mi
11:51 AM79 °FCloudy.8 mph82%29.87 "Hg10 mi
10:51 AM76 °FMostly cloudy.6 mph88%29.88 "Hg10 mi
9:51 AM76 °FCloudy.6 mph85%29.88 "Hg10 mi
8:51 AM75 °FMostly cloudy.7 mph88%29.88 "Hg10 mi
7:51 AM74 °FOvercast.8 mph91%29.88 "Hg10 mi
6:51 AM73 °FMostly cloudy.6 mph94%29.85 "Hg10 mi
5:51 AM73 °FOvercast.9 mph90%29.86 "Hg10 mi
4:51 AM73 °FMostly cloudy.6 mph90%29.88 "Hg10 mi
3:51 AM73 °FLow clouds.6 mph90%29.89 "Hg10 mi
2:51 AM73 °FLow clouds.7 mph90%29.90 "Hg10 mi
1:51 AM73 °FLow clouds.8 mph90%29.91 "Hg10 mi
1:02 AM73 °FMostly cloudy.7 mph90%29.92 "Hg10 mi
Weather by CustomWeather, © 2015

See weather overviewHow to use our weather pages